Preview of NWS' New Version of Forecast
This preview is not operational and should not be used for support decisions.

Regional Weather Roundup (RWR)

Issued by National Weather Service (NWS)

                            
000
ASUS43 KLSX 160507
RWRMO 

WEATHER SUMMARY FOR MISSOURI
NATIONAL WEATHER SERVICE SPRINGFIELD MO
1200 AM CDT MON SEP 16 2019

NOTE: "FAIR" INDICATES FEW OR NO CLOUDS BELOW 12,000 FEET WITH NO
       SIGNIFICANT WEATHER AND/OR OBSTRUCTIONS TO VISIBILITY.
       CURRENT SKY AND/OR WEATHER CONDITIONS ARE NOT AVAILABLE FOR
       CHILLICOTHE AND FARMINGTON.

MOZ001>031-035>038-043-044-053-054-160600-
...NORTHERN AND WESTERN MISSOURI...
  
CITY           SKY/WX    TMP DP  RH WIND       PRES   REMARKS
KANSAS CTY INT CLEAR     73  69  87 S8        30.04S                  
KANSAS C DTWN  CLEAR     80  69  69 S8        30.02F                  
LEE'S SUMMIT   CLEAR     79  69  71 S10       30.05S                  
ST JOSEPH      CLEAR     74  71  91 S3        30.01F                  
CHILLICOTHE      N/A     74  72  93 CALM      30.04S                  
KIRKSVILLE     CLEAR     70  69  97 CALM      30.05S                  
     
$$
MOZ066>068-077>081-088>096-101>105-160600-
...SOUTHWEST MISSOURI...
  
CITY           SKY/WX    TMP DP  RH WIND       PRES   REMARKS
SPRINGFIELD    CLEAR     71  66  84 SE3       30.10S                  
JOPLIN         CLEAR     73  70  90 SE5       30.09S                  
               
$$
MOZ032>034-039>042-045>050-055>058-069>072-160600-
...CENTRAL MISSOURI...  
  
CITY           SKY/WX    TMP DP  RH WIND       PRES   REMARKS
COLUMBIA       CLEAR     78  68  71 CALM      30.06S                  
JEFFERSON CITY CLEAR     76  70  82 CALM      30.04F                  
ROLLA          CLEAR     72  66  81 S8        30.09F                  
SEDALIA        CLEAR     75  71  87 SW9       30.06S                  
WHITEMAN AFB   PTCLDY    73  73 100 S8        30.01F                  
WARRENSBURG    CLEAR     73  68  83 S3        30.05S                  
OSAGE BEACH    CLEAR     71  70  96 CALM      30.08S                  
               
$$
MOZ051-052-059>065-160600-
...EAST CENTRAL MISSOURI...
  
CITY           SKY/WX    TMP DP  RH WIND       PRES   REMARKS
ST LOUIS INTL  CLEAR     81  68  64 SW6       30.05S                  
SPIRIT OF STL  CLEAR     74  71  91 CALM      30.04R                  
ST CHARLES       N/A    N/A N/A N/A MISG      30.04R                  
                   
$$
MOZ072>076-082>087-097>100-106>115-160600-
...SOUTH CENTRAL AND SOUTHEAST MISSOURI...
  
CITY           SKY/WX    TMP DP  RH WIND       PRES   REMARKS
CAPE GIRARDEAU FAIR      69  66  90 NW3       30.07S                  
FARMINGTON     CLEAR     72  68  87 CALM      30.10S                  
POPLAR BLUFF   FAIR      71  68  90 CALM      30.08R                  
WEST PLAINS    CLEAR     74  66  76 S3        30.13S                  
                                       
$$